Flag for New Zealand Weather past 2 weeks in Auckland, New Zealand

Now
50 °F

Cool.


Feels Like: 48 °F
Forecast: 46 / 56 °F
Wind: 5 mph from Southeast

Location: Auckland Airport

Current Time: May 27, 2015 at 8:33:23 PM

Latest Report: May 27, 2015 at 8:00 PM


Visibility: N/A

Pressure: 30.07 "Hg

Humidity: 94%

Dew point: 48 °F

Location of AucklandLocation

Historic Weather in Auckland — Graph

°F

Auckland temperature yesterday

Maximum temperature yesterday: 57 °F (at 12:00 PM)
Minimum temperature yesterday: 52 °F (at 1:00 AM)
Average temperature yesterday: 54 °F

Past Weeks' High & Low Weather Summary

 TemperatureHumidityPressure
High66 °F (May 13, 12:30 PM)100% (May 14, 11:30 PM)30.21 "Hg (May 14, 11:30 PM)
Low45 °F (May 20, 7:00 AM)47% (May 25, 12:30 PM)29.15 "Hg (May 23, 6:30 PM)
Average56 °F82%29.87 "Hg
* Reported May 12 7:00 PM — May 27 7:30 PM, Auckland, Weather by CustomWeather, © 2015

Note: Actual official high and low records may vary slightly from our data, if they occured in-between our weather recording intervals... More about our weather records

Advertising

Auckland weather history for previous 24 hours

 ConditionsComfort  
Time TempWeatherWind HumidityBarometerVisibility
7:30 PM
Wed, May 27
50 °FCool.3 mph94%30.04 "HgN/A
7:00 PM52 °FCool.7 mph88%30.04 "HgN/A
6:30 PM52 °FCool.5 mph88%30.04 "HgN/A
6:00 PM52 °FCool.8 mph82%30.01 "HgN/A
5:30 PM54 °FCool.8 mph82%30.01 "Hg6 mi
5:00 PM54 °FClear.8 mph82%30.01 "Hg10 mi
4:30 PM55 °FClear.6 mph77%29.98 "Hg10 mi
3:30 PM57 °FCool.3 mph77%29.98 "HgN/A
3:00 PM57 °FCool.1 mph77%29.98 "HgN/A
2:30 PM55 °FCool.3 mph82%29.98 "HgN/A
2:00 PM55 °FPassing clouds.5 mph82%29.98 "HgN/A
1:30 PM54 °FOvercast.3 mph82%29.95 "HgN/A
1:00 PM55 °FLight rain. Partly sunny.3 mph82%29.98 "HgN/A
12:30 PM54 °FLight rain. Mostly cloudy.6 mph88%29.98 "HgN/A
12:00 PM55 °FPartly sunny.3 mph82%29.98 "HgN/A
11:30 AM55 °FScattered clouds.1 mph77%29.98 "HgN/A
11:00 AM54 °FOvercast.No wind82%29.98 "HgN/A
10:30 AM52 °FLight rain. Overcast.2 mph88%29.98 "HgN/A
10:00 AM54 °FSprinkles. More clouds than sun.1 mph82%29.95 "HgN/A
9:30 AM52 °FScattered clouds.2 mph88%29.95 "HgN/A
9:00 AM52 °FCool.3 mph88%29.95 "HgN/A
8:30 AM50 °FScattered showers. Passing clouds.3 mph88%29.95 "HgN/A
8:00 AM50 °FPartly sunny.2 mph88%29.92 "HgN/A
7:30 AM50 °FScattered showers. Overcast.5 mph88%29.92 "HgN/A
7:00 AM52 °FPartly sunny.5 mph82%29.92 "HgN/A
6:30 AM52 °FScattered clouds.8 mph82%29.92 "HgN/A
6:00 AM50 °FPassing clouds.6 mph88%29.89 "HgN/A
5:30 AM54 °FOvercast.9 mph82%29.89 "HgN/A
5:00 AM54 °FPassing clouds.12 mph77%29.89 "HgN/A
4:30 AM54 °FOvercast.12 mph77%29.89 "HgN/A
4:00 AM54 °FPassing clouds.7 mph82%29.92 "HgN/A
3:30 AM54 °FCool.12 mph77%29.92 "HgN/A
3:00 AM54 °FSprinkles. Passing clouds.12 mph82%29.92 "HgN/A
2:30 AM52 °FCool.9 mph77%29.92 "HgN/A
2:00 AM54 °FPassing clouds.12 mph77%29.92 "HgN/A
1:30 AM54 °FPassing clouds.12 mph77%29.92 "HgN/A
1:00 AM54 °FLight rain. Partly cloudy.16 mph77%29.92 "HgN/A
12:30 AM54 °FPassing clouds.16 mph72%29.92 "HgN/A
12:00 AM54 °FCool.15 mph77%29.92 "HgN/A
11:30 PM
Tue, May 26
54 °FPassing clouds.15 mph77%29.92 "HgN/A
11:00 PM54 °FPassing clouds.16 mph77%29.92 "HgN/A
10:30 PM54 °FPartly cloudy.13 mph82%29.92 "HgN/A
10:00 PM52 °FPartly cloudy.13 mph94%29.92 "HgN/A
9:30 PM54 °FPartly cloudy.13 mph88%29.92 "HgN/A
9:00 PM54 °FPartly cloudy.17 mph82%29.92 "HgN/A
8:30 PM54 °FPassing clouds.14 mph82%29.92 "HgN/A
8:00 PM54 °FLight rain. Passing clouds.15 mph82%29.92 "HgN/A
Weather by CustomWeather, © 2015

See weather overviewHow to use our weather pages